Astrometry: 2024-030B C2024 02 15.89895706 54 57.09 +16 54 27.6 x16.0 GV L54 2024-030B C2024 02 15.90209406 55 01.83 +16 55 35.3 x14.7 GV L54 2024-030B C2024 02 15.90522706 55 06.53 +16 56 41.3 x14.1 GV L54 2024-030B C2024 02 15.90888806 55 12.16 +16 57 57.6 x13.8 GV L54 2024-030B C2024 02 15.91202106 55 17.05 +16 59 01.5 x13.9 GV L54 2024-030B CK240215:222103 06 58 28.406+16 57 34.67 x14.0 GV 970 2024-030B CK240215:225327 06 58 58.622+17 05 38.83 x12.6 GV 970 2024-030B CK240215:225443 06 59 00.192+17 06 01.22 x13.5 GV 970 2024-030B CK240215:232224 06 59 27.223+17 12 12.82 12.2 GV 970 2024-030B CK240215:232247 06 59 27.622+17 12 17.89 14.4 GV 970 2024-030B CK240215:232309 06 59 28.010+17 12 22.93 12.4 GV 970 2024-030B CK240215:232332 06 59 28.274+17 12 26.68 13.4 GV 970 IM1boos C2024 02 16.09250 07 12 48.00 +18 29 46.3 12.4 GU V16 IM1boos C2024 02 16.09524 07 12 48.65 +18 30 55.2 14.6 GU V16 IM1boos C2024 02 16.09825 07 12 49.31 +18 32 08.3 x14.0 GU V16 IM1boos C2024 02 16.10127 07 12 49.83 +18 33 20.5 13.7 GU V16 IM1boos C2024 02 16.10428 07 12 50.28 +18 34 31.1 13.3 GU V16 IM1boos C2024 02 16.10731 07 12 50.65 +18 35 42.0 12.9 GU V16 F9RB CK240216:02383886 07 13 03.571+18 35 14.50 14.7 GV V17 IM1boos C2024 02 16.11032 07 12 50.96 +18 36 51.9 12.7 GU V16 F9RB KCK240216:02402211 07 13 03.725+18 35 41.96 13.1 GV V17 F9RB CK240216:02420492 07 13 03.859+18 36 09.79 14.8 GV V17 IM1boos C2024 02 16.11334 07 12 51.11 +18 38 00.3 12.5 GU V16 F9RB CK240216:02435308 07 13 03.991+18 36 38.70 13.7 GV V17 F9RB KCK240216:02435849 07 13 04.003+18 36 39.71 13.1 GV V17 F9RB CK240216:02454127 07 13 04.102+18 37 07.03 12.9 GV V17 F9RB CK240216:02472920 07 13 04.224+18 37 35.51 12.5 GV V17 IM1boos C2024 02 16.11634 07 12 51.21 +18 39 07.1 12.5 GU V16 F9RB KCK240216:02474006 07 13 04.236+18 37 38.39 13.2 GV V17 F9RB CK240216:02491733 07 13 04.306+18 38 03.91 12.3 GV V17 C42Y9M1 C2024 02 16.13575 07 13 02.10 +18 44 37.2 V 703 C42Y9M1 C2024 02 16.13781 07 13 01.85 +18 45 19.9 V 703 C42Y9M1 C2024 02 16.13987 07 13 01.57 +18 46 00.2 V 703 F9RB CK240216:04471661 07 12 48.967+19 03 22.07 14.4 GV V17 F9RB CK240216:04494190 07 12 48.444+19 03 45.83 15.4 GV V17 F9RB CK240216:04520640 07 12 47.909+19 04 09.70 13.2 GV V17 F9RB CK240216:04543080 07 12 47.383+19 04 33.17 12.5 GV V17 F9RB CK240216:04564961 07 12 46.872+19 04 55.67 13.1 GV V17 2024-030B KC2024 02 16.31751 07 13 05.82 +19 13 09.7 12.7 GX U94 2024-030B KC2024 02 16.34777 07 13 19.81 +19 15 42.5 12.9 GX U94 F9RB CK240216:08572338 07 13 09.305+19 24 36.94 13.1 GV V17 F9RB CK240216:08584340 07 13 10.135+19 24 38.63 14.1 GV V17 F9RB CK240216:08594741 07 13 10.884+19 24 40.21 14.7 GV V17 2024-030B KC2024 02 16.37911 07 13 42.66 +19 17 19.6 x12.8 GX U94 Odysseus1 B2024 02 16.70690007 29 07.415+20 42 41.85 13.4 GV M44 Odysseus1 B2024 02 16.70702507 29 07.276+20 42 42.75 13.1 GV M44 Odysseus1 B2024 02 16.70715107 29 07.231+20 42 44.18 13.8 GV M44 Odysseus1 B2024 02 16.70727707 29 07.160+20 42 45.32 16.0 GV M44 Odysseus1 B2024 02 16.70740207 29 07.034+20 42 47.28 14.7 GV M44 Odysseus1 B2024 02 16.70752807 29 06.902+20 42 48.09 13.3 GV M44 Odysseus1 B2024 02 16.70765307 29 06.870+20 42 49.43 13.2 GV M44 Odysseus1 B2024 02 16.70777907 29 06.784+20 42 50.77 14.0 GV M44 Odysseus1 B2024 02 16.70790407 29 06.698+20 42 52.13 16.1 GV M44 Odysseus1 B2024 02 16.70803007 29 06.567+20 42 53.86 14.0 GV M44 Odysseus1 B2024 02 16.70815607 29 06.429+20 42 55.01 13.2 GV M44 Odysseus1 B2024 02 16.70828107 29 06.406+20 42 56.01 13.3 GV M44 Odysseus1 B2024 02 16.70840707 29 06.318+20 42 57.46 14.8 GV M44 Odysseus1 B2024 02 16.70853207 29 06.188+20 42 59.18 15.9 GV M44 Odysseus1 B2024 02 16.70865807 29 06.095+20 43 00.41 13.6 GV M44 Odysseus1 B2024 02 16.70878307 29 05.955+20 43 01.35 13.1 GV M44 Odysseus1 B2024 02 16.70890907 29 05.932+20 43 02.57 13.4 GV M44 Odysseus1 B2024 02 16.70903507 29 05.838+20 43 04.04 14.9 GV M44 Odysseus1 B2024 02 16.70916007 29 05.711+20 43 05.94 14.9 GV M44 Odysseus1 B2024 02 16.70928607 29 05.626+20 43 06.90 13.4 GV M44 Odysseus1 B2024 02 16.70941107 29 05.500+20 43 07.59 13.2 GV M44 Odysseus1 B2024 02 16.70953707 29 05.461+20 43 09.52 13.9 GV M44 Odysseus1 B2024 02 16.70966307 29 05.395+20 43 10.74 15.9 GV M44 Odysseus1 B2024 02 16.70978807 29 05.248+20 43 12.36 14.5 GV M44 Odysseus1 B2024 02 16.70991407 29 05.176+20 43 13.33 13.2 GV M44 Odysseus1 B2024 02 16.71003907 29 05.035+20 43 14.17 13.3 GV M44 Odysseus1 B2024 02 16.71016407 29 04.982+20 43 15.84 14.2 GV M44 Odysseus1 B2024 02 16.71029007 29 04.857+20 43 17.75 15.9 GV M44 Odysseus1 B2024 02 16.71041507 29 04.780+20 43 18.90 13.8 GV M44 Odysseus1 B2024 02 16.71054107 29 04.652+20 43 19.26 13.2 GV M44 2024-030B C2024 02 16.96644907 30 06.87 +20 37 38.4 14.9 GV L54 2024-030B C2024 02 16.97134807 30 07.57 +20 37 45.0 14.1 GV L54 2024-030B C2024 02 16.97622907 30 08.41 +20 37 50.8 14.2 GV L54 2024-030B C2024 02 16.98111407 30 09.43 +20 37 55.6 14.7 GV L54 2024-030B C2024 02 16.98599707 30 10.67 +20 37 59.6 15.2 GV L54 IM1boos K K240216:2343180 07 34 47.455+22 11 48.55 14.3 VZ Y05 2024-030B C2024 02 16.99089107 30 12.07 +20 38 03.3 14.6 GV L54 IM1boos K K240216:2347129 07 34 45.103+22 12 08.96 14.0 VZ Y05 IM1boos K K240216:2351079 07 34 42.722+22 12 29.27 14.1 VZ Y05 2024-030B C2024 02 16.99618307 30 13.77 +20 38 06.1 14.3 GV L54 IM1boos K K240216:2355029 07 34 40.313+22 12 48.78 14.3 VZ Y05 IM1boos K K240216:2358460 07 34 38.033+22 13 07.00 14.2 VZ Y05 IM1boos K K240217:0002175 07 34 35.856+22 13 23.56 14.2 VZ Y05 2024-030B C2024 02 17.00228707 30 15.96 +20 38 08.6 14.1 GV L54 IM1boos K K240217:0005493 07 34 33.655+22 13 40.22 14.8 VZ Y05 2024-030B C2024 02 17.01126407 30 19.74 +20 38 10.0 14.7 GV L54 IM1boos C2024 02 17.09230 07 38 35.40 +21 08 04.7 13.3 GU V16 IM1boos C2024 02 17.09506 07 38 34.60 +21 08 38.5 14.5 GU V16 IM1boos C2024 02 17.09806 07 38 33.76 +21 09 14.2 13.9 GU V16 IM1boos C2024 02 17.10108 07 38 32.81 +21 09 49.4 13.6 GU V16 IM1boos C2024 02 17.10409 07 38 31.82 +21 10 23.7 13.4 GU V16 IM1boos C2024 02 17.10712 07 38 30.74 +21 10 58.3 13.3 GU V16 IM1boos C2024 02 17.11013 07 38 29.59 +21 11 32.3 13.4 GU V16 IM1boos C2024 02 17.11315 07 38 28.39 +21 12 05.8 13.7 GU V16 F9RB CK240217:02435044 07 38 35.736+21 11 07.76 14.1 GV V17 F9RB CK240217:02451030 07 38 35.366+21 11 18.53 13.6 GV V17 F9RB CK240217:02462962 07 38 35.042+21 11 28.18 14.8 GV V17 IM1boos C2024 02 17.11616 07 38 27.15 +21 12 38.5 14.2 GU V16 F9RB CK240217:02474884 07 38 34.675+21 11 38.94 13.3 GV V17 F9RB CK240217:02490805 07 38 34.339+21 11 48.80 15.9 GV V17 F9RB CK240217:02502728 07 38 33.958+21 11 59.17 13.3 GV V17 F9RB CK240217:02513072 07 38 33.672+21 12 07.02 14.0 GV V17 IM1boos C2024 02 17.14998 07 38 21.93 +21 09 57.6 14.7 V U94 IM1boos C2024 02 17.15934 07 38 17.59 +21 11 25.2 14.1 V U94 IM1boos C2024 02 17.16919 07 38 12.64 +21 12 53.0 13.9 V U94 IM1boos C2024 02 17.18890 07 38 01.87 +21 15 30.1 13.9 V U94 IM1boos C2024 02 17.19381 07 37 59.04 +21 16 05.9 14.9 V U94 IM1boos C2024 02 17.22677 07 37 33.01 +21 15 52.6 13.6 r 718 IM1boos C2024 02 17.22856 07 37 32.06 +21 16 01.7 13.7 r 718 IM1boos C2024 02 17.23033 07 37 31.09 +21 16 10.8 13.7 r 718 C42YNV1 C2024 02 17.23111 07 37 21.58 +21 26 43.8 ~2HE5 V 703 IM1boos C2024 02 17.23211 07 37 30.13 +21 16 19.6 13.7 r 718 C42YNV1 C2024 02 17.23341 07 37 19.93 +21 26 54.8 ~2HE5 15.0 GV 703 IM1boos C2024 02 17.23389 07 37 29.18 +21 16 28.4 13.7 r 718 C42YNV1 C2024 02 17.23570 07 37 18.29 +21 27 04.7 ~2HE5 14.2 GV 703 C42YNV1 C2024 02 17.23801 07 37 16.68 +21 27 14.2 ~2HE5 13.7 GV 703 2024-030B KC2024 02 17.49746 07 42 39.17 +23 00 03.0 14.4 GX XXX 2024-030B KC2024 02 17.50379 07 42 34.84 +23 00 33.9 14.3 GX XXX 2024-030B KC2024 02 17.51012 07 42 30.45 +23 01 02.5 14.3 GX XXX 2024-030B KC2024 02 17.51689 07 42 25.75 +23 01 30.7 14.3 GX XXX IM1boos C2024 02 17.54549 07 43 50.03 +23 00 33.5 14.2 GU 323 IM1boos C2024 02 17.54631 07 43 49.47 +23 00 38.7 14.1 GU 323 IM1boos C2024 02 17.54712 07 43 48.87 +23 00 43.3 14.2 GU 323 a000001 KB2024 02 17.81391 07 48 07.09 +21 55 10.6 14.3 GX K19 a000001 KB2024 02 17.81752 07 48 05.83 +21 55 37.5 14.3 GX K19 a000001 KB2024 02 17.82113 07 48 04.51 +21 56 03.9 14.4 GX K19 a000001 KB2024 02 17.89059 07 47 32.16 +22 02 47.3 14.3 GX K19 a000001 KB2024 02 17.89426 07 47 30.22 +22 03 03.0 14.3 GX K19 a000001 KB2024 02 17.89797 07 47 28.30 +22 03 18.0 14.3 GX K19 F9RB KCK240218:06290216 07 50 52.010+22 37 15.20 14.5 GV V17 F9RB KCK240218:06323083 07 50 50.350+22 37 17.98 14.5 GV V17 F9RB KCK240218:06355926 07 50 48.722+22 37 20.35 14.5 GV V17 2024-030B KC2024 02 18.45806 07 55 36.04 +23 46 53.2 14.5 GX XXX 2024-030B KC2024 02 18.46438 07 55 32.30 +23 47 30.3 14.6 GX XXX 2024-030B KC2024 02 18.47024 07 55 28.73 +23 48 03.5 14.6 GX XXX 2024-030B KC2024 02 18.47609 07 55 25.03 +23 48 35.0 14.7 GX XXX Station data: (323) Perth Observatory, Bickley (S32.008741 E116.135000) Australia/WA. Observer B. Young. 0.35-m R-COP reflector + CCD. (703) Catalina Sky Survey (N32.417003 W110.732640) US/Arizona. Observer H. Gröller. Measurers T. Beuden, V. F. Carvajal, D. Fay, J. B. Fazekas, D. C. Fuls, A. R. Gibbs, A. D. Grauer, H. Gröller, J. K. Hogan, R. A. Kowalski, S. M. Larson, G. J. Leonard, D. Rankin, R. L. Seaman, F. C. Shelly, K. W. Wierzchoś. 0.68-m Schmidt + 10K CCD. (718) Tooele (N40.641406 W112.295800) US/Utah. Observer P. Wiggins. 0.35-m f/5.5 Schmidt-Cassegrain + CCD. (970) Chelmsford (N51.744713 E0.495400) UK/England. Observer N. James. 0.28-m f/10 Schmidt-Cassegrain + CCD. (K19) PASTIS Observatory, Banon (N43.999459 E5.647310) France. Observer C. Demeautis. 0.28-m f/2.2 reflector + CMO. (L54) Berthelot Observatory, Hunedoara (N45.616531 E22.888780) Romania. Observers A. Sonka, A. Nedelcu. Measurer A. Sonka. 0.50-m f/8 RC + CCD. (M44) Al-Khatim Observatory, Abu Dhabi (N24.219595 E54.920310) United Arab Emirates. Observer M. Odeh. 0.36-m f/7.7 SC + CMO. (U94) iTelescope Observatory, Beryl Junction (N37.737780 W113.697500) US/Utah. Observers J. Jahn, D. Parrott. Measurer J. Jahn. 0.10-m f/5 refractor + CCD. (V16) Dark Sky New Mexico, Animas (N31.946942 W108.897120) US/New Mexico. Observer D. Crowson. 0.30-m f/8.0 Ritchey-Chrétien + CCD. (V17) Leo Observatory, Tucson (N32.373978 W111.016810) US/Arizona. Observers V. Reddy, L. Le Corre. Measurer V. Reddy. (XXX) Temporary MPC code (S34.544083 E139.570083) Australia/SA. Observer J. Jahn. 0.30-m f/3.8 reflector + CCD. (Y05) SONEAR Wykrota-CEAMIG, Serra da Piedade (S19.824251 W43.690000) Brazil. Observers C. Jacques, A. Caetano, E. Pimentel. Measurer C. Jacques. 0.45-m f/2.9 reflector + CMO. Orbital elements: 2024-030B = NORAD 58964 = Falcon 9-300 Stage 2 Perigee 2024 Feb 15.2823677 +/- 1.12e-5 TT = 6:46:36.57 (JD 2460355.7823677) Epoch 2024 Feb 18.0 TT = JDT 2460358.5 Find_Orb M 88.0397350113 +/- 0.0035 (J2000 equator) n 32.3957495990 +/- 0.00139 Peri. 239.0381314 +/- 0.00031 a210351.11442 +/- 6.01 Node 68.5023138 +/- 0.00012 e 0.969247837 +/- 4.25e-7 Incl. 28.9472589 +/- 0.000055 P 11.1124d H 26.70 G 0.15 U 8.3 q 6468.7516366 +/- 0.224 Q 414233.47720 +/- 11.8 130 of 140 observations 2024 Feb. 15-18; mean residual 0".436 Orbital elements: 2024-030B = NORAD 58964 = Falcon 9-300 Stage 2 (lunar flyby) Perilune 2024 Feb 21.6175487 +/- 8.66e-5 TT = 14:49:16.20 (JD 2460362.1175487) Epoch 2024 Feb 21.6 TT = JDT 2460362.1 Find_Orb q 2222.2459169 +/- 5.22 (J2000 ecliptic) H 26.70 G 0.15 Peri. 133.1403090 +/- 0.044 Node 193.5003187 +/- 0.013 e 1.313243359 +/- 0.000725 Incl. 115.9103974 +/- 0.13 130 of 140 observations 2024 Feb. 15-18; mean residual 0".436
